Погода в Озарённом

Россия / Брянская область     52°57′00″N   33°43′53″E
темп.,
°C
ветер,
м/с
пор.,
м/с
влажн.,
%
обл.,
%
осадки,
мм/ч
давл.,
гПа
погр.,
м
8 мая, сб
сб800:00+9ююв71585100 0.8 1008985
03:00+10ю51197100 1.9 1006663
06:00+9ю3998100 4.0 1005469
09:00+9ююв1298100 9.0 100467
12:00+10зюз1292100 1.6 1004189
15:00+9сз5896100 3.9 1003558
18:00+5сз71295100 1.8 10051015
21:00+5сз61094100 7.1 1009919
9 мая, вс
вс900:00+4сз61289100 1.3 1011998
03:00+3зсз51289100 1.3 1014531
06:00+2зсз5138792 0.0 1016573
09:00+6сз710715 0.0 10181010
12:00+9сз795195 0.1 10192167
15:00+11ссз6845100 0.1 10212361
18:00+11ссз47545 0.0 10221982
21:00+5сз33720 0.0 102541
10 мая, пн
пн1000:00+4зсз33765 0.0 102742
03:00+3сз33805 0.0 102846
06:00+3с22795 0.0 103039
09:00+10всв23565 0.0 1030401
12:00+13ссв23415 0.0 10301322
15:00+15ссв34404 0.0 10291574
18:00+15ссв34500 0.0 10281120
21:00+8всв34700 0.0 102945
11 мая, вт
вт1100:00+7всв35720 0.0 102985
03:00+5ссв36780 0.0 102991
06:00+5св411780 0.0 1029224
09:00+11св611550 0.0 1027683
12:00+16всв68455 0.0 10261032
15:00+18всв67515 0.0 10241194
18:00+17в6970100 0.0 10251125
21:00+11в36930 0.1 1024110
12 мая, ср
ср1200:00+10всв389634 0.0 1024155
03:00+11всв3697100 0.6 1021302
06:00+10юв4894100 0.4 1021504
09:00+9вюв3795100 1.8 1022342
12:00+15в586579 0.2 10211559
15:00+16вюв695969 0.5 10201675
18:00+15юв3770100 0.4 10201043
21:00+11ююв1184100 0.5 101910